CW9803 Weather Reports


time (UTC)temp
C
wind
direction
speed
KPH
gust
KPH
rain 1hr
cm
rain 24hr
cm
rain mn
cm
humidity
%
barometer
mb
20260506211545 25 190 3.2 3.2 0.00 0.00 0.00 35 1012.0
20260506211042 24 172 14.5 20.9 0.00 0.00 0.00 37 1012.0
20260506210538 25 147 4.8 6.4 0.00 0.00 0.00 39 1012.1
20260506210035 25 181 14.5 22.5 0.00 0.00 0.00 38 1011.8
20260506205532 25 160 11.3 14.5 0.00 0.00 0.00 37 1012.0
20260506205027 25 192 19.3 24.1 0.00 0.00 0.00 38 1011.9
20260506204525 25 159 9.7 11.3 0.00 0.00 0.00 38 1011.9
20260506204022 23 150 12.9 14.5 0.00 0.00 0.00 39 1012.1
20260506203520 24 170 14.5 17.7 0.00 0.00 0.00 39 1012.0
20260506203016 24 205 12.9 14.5 0.00 0.00 0.00 38 1012.2
20260506202514 24 159 3.2 4.8 0.00 0.00 0.00 41 1012.0
20260506202010 23 194 14.5 17.7 0.00 0.00 0.00 38 1012.3
20260506201508 23 180 9.7 14.5 0.00 0.00 0.00 39 1012.4
20260506200958 23 189 14.5 17.7 0.00 0.00 0.00 40 1012.3
20260506200454 23 200 12.9 16.1 0.00 0.00 0.00 39 1012.1
20260506195945 23 187 14.5 16.1 0.00 0.00 0.00 38 1012.4
20260506195442 23 179 9.7 12.9 0.00 0.00 0.00 40 1012.4
20260506194939 23 165 9.7 16.1 0.00 0.00 0.00 39 1012.6
20260506194437 23 150 9.7 12.9 0.00 0.00 0.00 40 1012.6
20260506193933 23 168 9.7 12.9 0.00 0.00 0.00 40 1012.6
20260506193430 23 163 8.0 12.9 0.00 0.00 0.00 39 1012.7
20260506192926 23 169 8.0 11.3 0.00 0.00 0.00 40 1012.6
20260506192423 22 165 9.7 12.9 0.00 0.00 0.00 40 1012.9
20260506191915 23 148 9.7 14.5 0.00 0.00 0.00 41 1013.1
20260506191411 22 179 8.0 11.3 0.00 0.00 0.00 42 1012.9
20260506190908 23 132 4.8 4.8 0.00 0.00 0.00 40 1013.2
20260506190404 22 154 12.9 16.1 0.00 0.00 0.00 41 1013.2
20260506185901 22 170 1.6 3.2 0.00 0.00 0.00 42 1013.3
20260506185358 22 174 3.2 6.4 0.00 0.00 0.00 41 1013.3
20260506184855 22 143 4.8 4.8 0.00 0.00 0.00 41 1013.6
20260506184352 22 189 9.7 11.3 0.00 0.00 0.00 42 1013.6
20260506183850 22 184 6.4 6.4 0.00 0.00 0.00 42 1013.6
20260506183344 22 192 9.7 14.5 0.00 0.00 0.00 42 1013.7
20260506182842 22 219 9.7 16.1 0.00 0.00 0.00 42 1013.6
20260506182339 22 190 11.3 12.9 0.00 0.00 0.00 41 1013.6
20260506181837 21 183 11.3 12.9 0.00 0.00 0.00 42 1013.6
20260506181335 21 167 9.7 12.9 0.00 0.00 0.00 44 1013.8
20260506180831 21 154 17.7 17.7 0.00 0.00 0.00 43 1013.7
20260506180327 21 194 8.0 16.1 0.00 0.00 0.00 44 1013.6
20260506175824 21 132 4.8 9.7 0.00 0.00 0.00 42 1013.9
20260506175321 21 239 6.4 6.4 0.00 0.00 0.00 44 1013.8
20260506174818 20 193 9.7 16.1 0.00 0.00 0.00 44 1013.8
20260506174315 20 186 8.0 12.9 0.00 0.00 0.00 44 1013.9
20260506173813 20 166 3.2 4.8 0.00 0.00 0.00 45 1013.8
20260506173309 20 178 9.7 20.9 0.00 0.00 0.00 46 1013.7
20260506172807 20 156 4.8 6.4 0.00 0.00 0.00 47 1013.9
20260506172306 20 185 4.8 6.4 0.00 0.00 0.00 46 1013.7
20260506171801 19 160 17.7 27.4 0.00 0.00 0.00 47 1013.8
20260506171257 19 153 6.4 11.3 0.00 0.00 0.00 48 1013.8
20260506170755 18 247 9.7 12.9 0.00 0.00 0.00 49 1014.2
20260506170251 18 172 4.8 6.4 0.00 0.00 0.00 53 1013.8
20260506165750 18 103 3.2 3.2 0.00 0.00 0.00 54 1013.9
20260506165247 18 156 3.2 4.8 0.00 0.00 0.00 57 1014.0
20260506164744 17 212 4.8 9.7 0.00 0.00 0.00 56 1014.0
20260506164241 17 181 4.8 4.8 0.00 0.00 0.00 55 1014.0
20260506163738 17 157 3.2 4.8 0.00 0.00 0.00 54 1014.3
20260506163232 17 151 4.8 4.8 0.00 0.00 0.00 53 1014.2
20260506162729 17 134 0.0 1.6 0.00 0.00 0.00 57 1014.3
20260506162227 16 131 1.6 3.2 0.00 0.00 0.00 61 1014.2
20260506161724 16 156 3.2 4.8 0.00 0.00 0.00 62 1014.0
20260506161221 15 135 3.2 3.2 0.00 0.00 0.00 65 1014.2
20260506160718 14 158 1.6 1.6 0.00 0.00 0.00 66 1014.2
20260506160215 13 154 4.8 4.8 0.00 0.00 0.00 66 1014.2
20260506155713 13 200 4.8 6.4 0.00 0.00 0.00 69 1014.4
20260506155210 12 145 4.8 6.4 0.00 0.00 0.00 69 1014.5
20260506153312 12 146 1.6 1.6 0.00 0.00 0.00 69 1014.4
20260506152809 12 142 1.6 1.6 0.00 0.00 0.00 69 1014.5
20260506152306 12 130 1.6 1.6 0.00 0.00 0.00 68 1014.4
20260506151805 11 144 0.0 0.0 0.00 0.00 0.00 71 1014.5
20260506151301 11 101 1.6 1.6 0.00 0.00 0.00 69 1014.6
20260506150758 11 106 0.0 1.6 0.00 0.00 0.00 73 1014.5
20260506150303 10 112 0.0 0.0 0.00 0.00 0.00 74 1014.7
20260506145752 10 107 0.0 1.6 0.00 0.00 0.00 73 1014.3
20260506145248 10 145 0.0 0.0 0.00 0.00 0.00 75 1014.3
20260506144746 10 107 0.0 0.0 0.00 0.00 0.00 76 1014.4
20260506144242 9 110 0.0 1.6 0.00 0.00 0.00 77 1014.6
20260506143740 10 103 1.6 1.6 0.00 0.00 0.00 76 1014.0
20260506143237 9 102 0.0 1.6 0.00 0.00 0.00 77 1014.4
20260506142736 8 102 0.0 0.0 0.00 0.00 0.00 78 1014.4
20260506142233 8 123 0.0 0.0 0.00 0.00 0.00 80 1014.2
20260506141731 8 133 0.0 0.0 0.00 0.00 0.00 81 1014.3
20260506141229 7 133 0.0 0.0 0.00 0.00 0.00 83 1014.2
20260506140727 7 133 0.0 0.0 0.00 0.00 0.00 83 1014.2
20260506140223 7 133 0.0 0.0 0.00 0.00 0.00 83 1014.3
20260506135720 7 132 0.0 0.0 0.00 0.00 0.00 84 1013.9
20260506135216 6 129 0.0 0.0 0.00 0.00 0.00 85 1014.6
20260506134714 6 129 0.0 0.0 0.00 0.00 0.00 87 1014.4
20260506134209 6 100 0.0 0.0 0.00 0.00 0.00 86 1014.4
20260506133707 6 98 0.0 0.0 0.00 0.00 0.00 88 1014.3
20260506133203 5 96 0.0 0.0 0.00 0.00 0.00 89 1014.4
20260506132701 5 101 0.0 0.0 0.00 0.00 0.00 90 1014.2
20260506132157 5 108 0.0 0.0 0.00 0.00 0.00 91 1014.3
20260506131655 5 120 0.0 0.0 0.00 0.00 0.00 92 1013.9
20260506131151 5 126 0.0 0.0 0.00 0.00 0.00 93 1014.0
20260506130648 4 139 0.0 0.0 0.00 0.00 0.00 94 1014.2
20260506130145 3 139 0.0 0.0 0.00 0.00 0.00 94 1013.9
20260506125644 3 140 0.0 0.0 0.00 0.00 0.00 94 1013.8
20260506125141 3 125 0.0 0.0 0.00 0.00 0.00 95 1013.8
20260506124639 3 122 0.0 0.0 0.00 0.00 0.00 95 1014.2
20260506124136 3 122 0.0 0.0 0.00 0.00 0.00 95 1013.8
20260506123634 3 122 0.0 0.0 0.00 0.00 0.00 95 1013.8
20260506123132 3 122 0.0 0.0 0.00 0.00 0.00 95 1013.7
20260506122629 3 121 0.0 0.0 0.00 0.00 0.00 95 1013.8
20260506122126 3 123 0.0 0.0 0.00 0.00 0.00 95 1013.8
20260506121624 3 151 0.0 0.0 0.00 0.00 0.00 95 1013.7
20260506121120 3 152 0.0 0.0 0.00 0.00 0.00 95 1013.6
20260506120618 3 152 0.0 0.0 0.00 0.00 0.00 95 1013.6
20260506120115 3 152 0.0 0.0 0.00 0.00 0.00 95 1013.6
20260506115614 3 152 0.0 0.0 0.00 0.00 0.00 95 1013.5
20260506115112 3 153 0.0 0.0 0.00 0.00 0.00 95 1013.5
20260506114608 3 153 0.0 0.0 0.00 0.00 0.00 95 1013.5
20260506114107 4 153 0.0 0.0 0.00 0.00 0.00 95 1013.4
20260506113604 4 153 0.0 0.0 0.00 0.00 0.00 95 1013.4
20260506113101 3 153 0.0 0.0 0.00 0.00 0.00 94 1013.5
20260506112557 4 154 0.0 0.0 0.00 0.00 0.00 94 1013.6
20260506112055 4 162 0.0 1.6 0.00 0.00 0.00 94 1013.5
20260506111553 4 158 1.6 1.6 0.00 0.00 0.00 93 1013.5
20260506111050 4 148 0.0 0.0 0.00 0.00 0.00 93 1013.5
20260506110548 4 121 0.0 0.0 0.00 0.00 0.00 93 1013.3
20260506110045 4 120 0.0 0.0 0.00 0.00 0.00 92 1013.2
20260506105541 4 121 0.0 0.0 0.00 0.00 0.00 92 1013.3
20260506105038 4 121 0.0 0.0 0.00 0.00 0.00 92 1013.3
20260506104536 5 128 0.0 0.0 0.00 0.00 0.00 92 1013.2
20260506104034 5 151 0.0 0.0 0.00 0.00 0.00 92 1013.2
20260506103531 5 134 0.0 0.0 0.00 0.00 0.00 91 1013.0
20260506103027 5 127 0.0 0.0 0.00 0.00 0.00 91 1012.7
20260506102526 5 126 0.0 0.0 0.00 0.00 0.00 91 1013.0
20260506102023 5 133 0.0 0.0 0.00 0.00 0.00 91 1012.9
20260506101519 5 134 0.0 0.0 0.00 0.00 0.00 91 1012.9
20260506101017 5 132 0.0 0.0 0.00 0.00 0.00 91 1012.9
20260506100515 5 132 0.0 0.0 0.00 0.00 0.00 91 1012.9
20260506100013 5 145 0.0 0.0 0.00 0.00 0.00 91 1012.6
20260506095511 5 142 0.0 0.0 0.00 0.00 0.00 91 1012.7
20260506095007 5 107 0.0 0.0 0.00 0.00 0.00 91 1012.6
20260506094505 5 120 0.0 0.0 0.00 0.00 0.00 91 1012.7
20260506094003 5 123 0.0 0.0 0.00 0.00 0.00 91 1012.9
20260506093501 5 138 0.0 0.0 0.00 0.00 0.00 90 1012.6
20260506092958 5 141 0.0 0.0 0.00 0.00 0.00 90 1012.7
20260506092456 6 142 0.0 0.0 0.00 0.00 0.00 91 1012.6
20260506091952 5 123 0.0 0.0 0.00 0.00 0.00 91 1012.6
20260506091450 6 123 0.0 0.0 0.00 0.00 0.00 91 1012.6
20260506090947 6 133 0.0 0.0 0.00 0.00 0.00 91 1012.5
20260506090445 6 147 0.0 0.0 0.00 0.00 0.00 91 1012.6
20260506085941 6 148 0.0 0.0 0.00 0.00 0.00 90 1012.6
20260506085438 6 149 0.0 0.0 0.00 0.00 0.00 90 1012.6
20260506084934 6 149 0.0 0.0 0.00 0.00 0.00 89 1012.7
20260506084432 6 149 0.0 0.0 0.00 0.00 0.00 89 1012.4
20260506083927 6 137 0.0 0.0 0.00 0.00 0.00 88 1012.5
20260506083425 6 126 0.0 0.0 0.00 0.00 0.00 88 1012.3
20260506082922 6 146 0.0 0.0 0.00 0.00 0.00 88 1012.5
20260506082419 6 129 0.0 0.0 0.00 0.00 0.00 88 1012.5
20260506081914 7 129 0.0 0.0 0.00 0.00 0.00 88 1012.5
20260506081413 7 129 0.0 0.0 0.00 0.00 0.00 88 1012.5
20260506080910 7 126 0.0 0.0 0.00 0.00 0.00 88 1012.5
20260506080407 7 115 0.0 0.0 0.00 0.00 0.00 88 1012.4
20260506073351 8 148 0.0 0.0 0.00 0.00 0.00 86 1012.1
20260506072848 8 149 0.0 0.0 0.00 0.00 0.00 87 1012.2
20260506072345 8 149 0.0 0.0 0.00 0.00 0.00 86 1012.3
20260506071843 8 149 0.0 0.0 0.00 0.00 0.00 86 1012.3
20260506071341 8 118 0.0 0.0 0.00 0.00 0.00 86 1012.1
20260506070837 8 118 0.0 0.0 0.00 0.00 0.00 86 1012.1
20260506070335 8 117 0.0 0.0 0.00 0.00 0.00 84 1012.1
20260506062312 9 103 0.0 0.0 0.00 0.00 0.00 82 1011.7
20260506061808 10 103 0.0 0.0 0.00 0.00 0.00 82 1011.7
20260506061305 10 113 0.0 0.0 0.00 0.00 0.00 82 1011.6
20260506060803 10 104 0.0 1.6 0.00 0.00 0.00 80 1011.6
20260506060301 10 107 0.0 0.0 0.00 0.00 0.00 80 1011.7
20260506051232 11 173 1.6 1.6 0.00 0.00 0.00 73 1011.3
20260506050730 11 139 0.0 0.0 0.00 0.00 0.00 72 1011.0
20260506050227 12 139 0.0 0.0 0.00 0.00 0.00 72 1011.1
20260506044718 12 140 0.0 0.0 0.00 0.00 0.00 69 1011.1
20260506044215 13 140 0.0 0.0 0.00 0.00 0.00 67 1010.8
20260506043712 13 146 0.0 0.0 0.00 0.00 0.00 65 1011.1
20260506043210 14 147 0.0 0.0 0.00 0.00 0.00 62 1010.8
20260506042709 14 171 1.6 1.6 0.00 0.00 0.00 62 1010.7
20260506042207 14 157 1.6 1.6 0.00 0.00 0.00 63 1010.7
20260506041705 14 196 1.6 3.2 0.00 0.00 0.00 63 1010.5
20260506041201 15 174 0.0 0.0 0.00 0.00 0.00 62 1010.5
20260506040659 15 150 0.0 0.0 0.00 0.00 0.00 60 1010.7
20260506040155 15 168 1.6 1.6 0.00 0.00 0.00 58 1010.5
20260506035652 15 123 0.0 0.0 0.00 0.00 0.00 59 1010.5
20260506035149 15 55 3.2 3.2 0.00 0.00 0.00 59 1010.5
20260506034646 15 100 1.6 3.2 0.00 0.00 0.00 61 1010.3
20260506034143 15 96 0.0 0.0 0.00 0.00 0.00 63 1010.3
20260506033641 15 56 1.6 3.2 0.00 0.00 0.00 62 1010.3
20260506033137 15 115 1.6 1.6 0.00 0.00 0.00 61 1010.1
20260506032634 15 107 1.6 1.6 0.00 0.00 0.00 60 1010.3
20260506032131 16 103 1.6 1.6 0.00 0.00 0.00 58 1010.3
20260506031628 16 138 0.0 0.0 0.00 0.00 0.00 57 1009.9
20260506031125 16 60 1.6 1.6 0.00 0.00 0.00 55 1010.1
20260506030624 17 109 0.0 0.0 0.00 0.00 0.00 54 1010.0
20260506030120 16 114 0.0 0.0 0.00 0.00 0.00 54 1009.9
20260506025617 17 86 0.0 1.6 0.00 0.00 0.00 56 1009.8
20260506025113 17 142 0.0 0.0 0.00 0.00 0.00 55 1010.0
20260506024611 17 59 1.6 1.6 0.00 0.00 0.00 53 1009.9
20260506024107 18 107 0.0 0.0 0.00 0.00 0.00 50 1009.8
20260506023603 18 204 3.2 3.2 0.00 0.00 0.00 48 1009.4
20260506023101 19 271 3.2 4.8 0.00 0.00 0.00 47 1009.6
20260506022558 20 165 0.0 0.0 0.00 0.00 0.00 46 1009.6
20260506022056 20 314 1.6 3.2 0.00 0.00 0.00 46 1009.5
20260506021553 20 26 1.6 1.6 0.00 0.00 0.00 46 1009.5
20260506021050 21 130 1.6 3.2 0.00 0.00 0.00 41 1009.5
20260506020547 21 231 4.8 4.8 0.00 0.00 0.00 40 1009.4
20260506020045 21 130 1.6 1.6 0.00 0.00 0.00 40 1009.4
20260506015542 21 122 3.2 3.2 0.00 0.00 0.00 40 1009.5
20260506015039 21 237 4.8 9.7 0.00 0.00 0.00 39 1009.4
20260506014536 21 281 4.8 6.4 0.00 0.00 0.00 38 1009.2
20260506014032 22 278 6.4 6.4 0.00 0.00 0.00 37 1009.3
20260506013531 22 315 9.7 14.5 0.00 0.00 0.00 37 1009.0
20260506013027 22 256 6.4 6.4 0.00 0.00 0.00 37 1009.1
20260506012523 22 327 6.4 6.4 0.00 0.00 0.00 37 1009.0
20260506012020 22 286 17.7 20.9 0.00 0.00 0.00 36 1009.2
20260506011518 22 196 8.0 11.3 0.00 0.00 0.00 35 1009.0
20260506011014 22 233 9.7 11.3 0.00 0.00 0.00 34 1009.1
20260506010513 23 227 3.2 3.2 0.00 0.00 0.00 33 1008.8
20260506010009 23 289 11.3 14.5 0.00 0.00 0.00 33 1008.8
20260506005507 23 316 8.0 9.7 0.00 0.00 0.00 33 1009.0
20260506005002 23 335 6.4 6.4 0.00 0.00 0.00 32 1009.0
20260506004500 23 306 12.9 16.1 0.00 0.00 0.00 32 1009.1
20260506003956 23 149 1.6 3.2 0.00 0.00 0.00 33 1008.7
20260506003452 23 232 12.9 14.5 0.00 0.00 0.00 31 1008.6
20260506002948 23 244 6.4 11.3 0.00 0.00 0.00 33 1008.6
20260506002445 23 346 9.7 12.9 0.00 0.00 0.00 30 1008.8
20260506001940 23 335 9.7 16.1 0.00 0.00 0.00 32 1008.5
20260506001438 23 353 9.7 14.5 0.00 0.00 0.00 32 1008.8
20260506000935 23 27 8.0 11.3 0.00 0.00 0.00 32 1008.8
20260506000432 24 310 9.7 16.1 0.00 0.00 0.00 30 1008.8
20260505235929 24 350 6.4 9.7 0.00 0.00 0.00 31 1008.7
20260505235427 24 206 8.0 9.7 0.00 0.00 0.00 28 1008.5
20260505234924 24 326 14.5 17.7 0.00 0.00 0.00 27 1009.0
20260505234421 24 301 6.4 6.4 0.00 0.00 0.00 29 1008.7
20260505233918 23 188 6.4 9.7 0.00 0.00 0.00 30 1008.7
20260505233416 24 183 4.8 11.3 0.00 0.00 0.00 32 1008.8
20260505232913 23 349 6.4 9.7 0.00 0.00 0.00 31 1008.6
20260505232411 24 328 6.4 11.3 0.00 0.00 0.00 31 1008.7
20260505231907 24 113 9.7 14.5 0.00 0.00 0.00 31 1008.6
20260505231405 24 99 11.3 16.1 0.00 0.00 0.00 30 1008.7
20260505230903 24 25 6.4 6.4 0.00 0.00 0.00 33 1008.5
20260505230400 25 221 8.0 9.7 0.00 0.00 0.00 34 1008.8
20260505225856 24 350 8.0 12.9 0.00 0.00 0.00 34 1008.6
20260505225354 25 214 6.4 6.4 0.00 0.00 0.00 34 1008.5
20260505224849 24 306 9.7 11.3 0.00 0.00 0.00 35 1008.6
20260505224347 24 148 3.2 3.2 0.00 0.00 0.00 35 1008.5
20260505223843 25 259 9.7 11.3 0.00 0.00 0.00 35 1008.8
20260505223340 25 265 9.7 14.5 0.00 0.00 0.00 33 1008.7
20260505222836 25 300 9.7 12.9 0.00 0.00 0.00 33 1008.6
20260505222332 25 7 4.8 6.4 0.00 0.00 0.00 33 1008.6
20260505221830 24 298 8.0 9.7 0.00 0.00 0.00 33 1008.8
20260505221326 25 210 8.0 11.3 0.00 0.00 0.00 33 1008.6
20260505220823 24 318 19.3 27.4 0.00 0.00 0.00 33 1008.7
20260505220320 24 275 11.3 17.7 0.00 0.00 0.00 34 1008.6
20260505215819 24 297 12.9 16.1 0.00 0.00 0.00 34 1008.8
20260505215316 25 151 8.0 11.3 0.00 0.00 0.00 35 1008.7
20260505214814 24 300 6.4 9.7 0.00 0.00 0.00 34 1009.0
20260505214311 25 311 14.5 16.1 0.00 0.00 0.00 35 1009.0
20260505213808 24 303 8.0 11.3 0.00 0.00 0.00 35 1008.7
20260505213306 24 353 6.4 6.4 0.00 0.00 0.00 34 1009.0
20260505212801 24 322 16.1 20.9 0.00 0.00 0.00 36 1008.6
20260505212259 24 264 9.7 12.9 0.00 0.00 0.00 36 1008.7